Tracking 19636 objects as of 24-May-2019
HD Live streaming from Space Station
objects crossing your sky now

YAOGAN-30 M

Track YAOGAN-30 M now!
10-day predictions


NORAD ID: 43172
Int'l Code: 2018-011D
Perigee: 603.8 km
Apogee: 608.6 km
Inclination: 35.0 °
Period: 96.7 minutes
Semi major axis: 6977 km
RCS: Unknown
Launch date: January 25, 2018
Source: People's Republic of China (PRC)
Launch site: Xichang Space Center, China (XSC)
aabbcc
Your satellite tracking list
Your tracking list is empty




NASA's NSSDC Master Catalog

Two Line Element Set (TLE):
1 43172U 18011D   19143.54385340  .00000136  00000-0  16685-4 0  9998
2 43172  34.9979 178.8118 0003417  83.3457 276.7635 14.89642413 72084
Source of the keplerian elements: AFSPC